Location: ????????
(48.4751°N, 37.6926°E)
Time: 12:51:36
(UTC+00:00)

Cosmos 1627 Rocket - Pass Details

Date: 20 January 2021
Orbit: 951 x 1003 km, 82.9° (Epoch: 26 February)

Event Time Altitude Azimuth Distance (km) Brightness Sun altitude
Rises 16:37:41 0° 183° (S) 3,627 7.6 -24.2°
Reaches altitude 10° 16:40:09 10° 182° (S) 2,690 6.9 -24.6°
Maximum altitude 16:46:19 80° 96° (E) 990 4.3 -25.6°
Drops below altitude 10° 16:52:36 10° 11° (N) 2,744 6.7 -26.7°
Sets 16:55:08 0° 11° (N) 3,704 7.4 -27.1°
